Flag for U.S.A. Weather past 2 weeks in Stockton, California, U.S.A.

Now
67 °F

Sunny.


Feels Like: 67 °F
Forecast: 52 / 72 °F
Wind: 12 mph from Northwest

Location: Stockton Metropolitan Airport

Current Time: Oct 21, 2014 at 12:21:11 PM

Latest Report: Oct 21, 2014 at 11:55 AM


Visibility: 10 mi

Pressure: 30.06 "Hg

Humidity: 49%

Dew point: 47 °F

Location of StocktonLocation

Historic Weather in Stockton — Graph

°F

Stockton temperature yesterday

Maximum temperature yesterday: 75 °F (at 12:55 PM)
Minimum temperature yesterday: 54 °F (at 11:55 PM)
Average temperature yesterday: 64 °F

Past Weeks' High & Low Weather Summary

 TemperatureHumidityPressure
High95 °F (Oct 6, 3:55 PM)90% (Oct 14, 6:55 AM)30.09 "Hg (Oct 14, 6:55 AM)
Low50 °F (Oct 21, 6:55 AM)13% (Oct 12, 5:55 PM)29.78 "Hg (Oct 7, 5:55 PM)
Average69 °F53%29.92 "Hg
* Reported Oct 6 10:55 AM — Oct 21 10:55 AM, Stockton, Weather by CustomWeather, © 2014

Note: Actual official high and low records may vary slightly from our data, if they occured in-between our weather recording intervals... More about our weather records

Advertising

Stockton weather history for previous 24 hours

 ConditionsComfort  
Time TempWeatherWind HumidityBarometerVisibility
10:55 AM
Oct 21
65 °FSunny.13 mph49%30.07 "Hg10 mi
9:55 AM63 °FSunny.15 mph54%30.09 "Hg10 mi
8:55 AM59 °FSunny.10 mph69%30.09 "Hg10 mi
7:55 AM51 °FClear.7 mph80%30.08 "Hg10 mi
6:55 AM50 °FClear.3 mph83%30.07 "Hg10 mi
5:55 AM51 °FClear.6 mph86%30.06 "Hg10 mi
4:55 AM52 °FClear.8 mph80%30.06 "Hg10 mi
3:55 AM53 °FClear.No wind83%30.06 "Hg10 mi
2:55 AM52 °FClear.No wind83%30.07 "Hg10 mi
1:55 AM55 °FClear.No wind80%30.08 "Hg10 mi
12:55 AM55 °FClear.3 mph80%30.06 "Hg10 mi
11:55 PM
Oct 20
54 °FClear.6 mph80%30.05 "Hg10 mi
10:55 PM58 °FClear.No wind75%30.04 "Hg10 mi
9:55 PM60 °FClear.7 mph67%30.02 "Hg10 mi
8:55 PM63 °FPassing clouds.8 mph63%30.00 "Hg10 mi
7:55 PM66 °FOvercast.14 mph54%29.98 "Hg10 mi
6:55 PM69 °FOvercast.15 mph49%29.96 "Hg10 mi
5:55 PM69 °FLight rain. Overcast.10 mph57%29.94 "Hg10 mi
4:55 PM70 °FLight rain. Mostly cloudy.9 mph53%29.93 "Hg10 mi
3:55 PM72 °FPartly sunny.17 mph52%29.93 "Hg10 mi
2:55 PM74 °FOvercast.15 mph50%29.93 "Hg10 mi
1:55 PM72 °FPartly sunny.13 mph59%29.93 "Hg10 mi
12:55 PM75 °FScattered clouds.12 mph52%29.93 "Hg10 mi
Weather by CustomWeather, © 2014

See weather overviewHow to use our weather pages